When you browse on this site, cookies collect data to enhance your experience and personalize the content and advertising you see.
Visit our Privacy Policy to learn more. By continuing to use the site, you agree to this use of cookies and data.
  • In Norway
  • List of Countries
  • For 7 days
  • Water Temperature
  • Satellite Maps
  • Weather Map
  • Weather Widgets
  • user-avatar
    Login

    Hourly Weather Yulara

    Today, 22 March, Friday

    Time Temperature Precipitation Wind Pressure Humidity
    00:00 +30°C° 0 mm 5 mps 716 mmHg 23%
    01:00 +29°C° 0 mm 5 mps 716 mmHg 24%
    02:00 +29°C° 0 mm 5 mps 715 mmHg 25%
    03:00 +28°C° 0 mm 4 mps 715 mmHg 26%
    04:00 +28°C° 0 mm 4 mps 715 mmHg 27%
    05:00 +27°C° 0 mm 4 mps 715 mmHg 28%
    06:00 +26°C° 0 mm 3 mps 715 mmHg 29%
    07:00 +29°C° 0 mm 4 mps 716 mmHg 25%
    08:00 +32°C° 0 mm 5 mps 716 mmHg 21%
    09:00 +35°C° 0 mm 7 mps 716 mmHg 17%
    10:00 +38°C° 0 mm 6 mps 716 mmHg 16%
    11:00 +40°C° 0 mm 6 mps 715 mmHg 14%
    12:00 +42°C° 0 mm 5 mps 715 mmHg 12%
    13:00 +42°C° 0 mm 5 mps 715 mmHg 12%
    14:00 +43°C° 0 mm 4 mps 714 mmHg 11%
    15:00 +43°C° 0 mm 4 mps 713 mmHg 11%
    16:00 +43°C° 0 mm 4 mps 713 mmHg 11%
    17:00 +42°C° 0 mm 4 mps 713 mmHg 11%
    18:00 +40°C° 0 mm 3 mps 713 mmHg 12%
    19:00 +38°C° 0 mm 4 mps 713 mmHg 14%
    20:00 +36°C° 0 mm 4 mps 713 mmHg 15%
    21:00 +34°C° 0 mm 4 mps 714 mmHg 17%
    22:00 +34°C° 0 mm 5 mps 714 mmHg 18%
    23:00 +33°C° 0 mm 5 mps 713 mmHg 18%

    Tomorrow, 23 March, Saturday

    Time Temperature Precipitation Wind Pressure Humidity
    00:00 +33°C° 0 mm 5 mps 713 mmHg 19%
    01:00 +32°C° 0 mm 5 mps 713 mmHg 20%
    02:00 +30°C° 0 mm 6 mps 713 mmHg 20%
    03:00 +30°C° 0 mm 6 mps 713 mmHg 21%
    04:00 +29°C° 0 mm 5 mps 713 mmHg 21%
    05:00 +28°C° 0 mm 4 mps 713 mmHg 22%
    06:00 +28°C° 0 mm 4 mps 712 mmHg 23%
    07:00 +30°C° 0 mm 4 mps 713 mmHg 23%
    08:00 +34°C° 0 mm 5 mps 713 mmHg 22%
    09:00 +36°C° 0 mm 6 mps 714 mmHg 22%
    10:00 +39°C° 0 mm 6 mps 714 mmHg 19%
    11:00 +41°C° 0 mm 6 mps 713 mmHg 16%
    12:00 +43°C° 0 mm 5 mps 713 mmHg 12%
    13:00 +43°C° 0 mm 5 mps 712 mmHg 12%
    14:00 +44°C° 0 mm 4 mps 711 mmHg 11%
    15:00 +44°C° 0 mm 3 mps 711 mmHg 11%
    16:00 +43°C° 0 mm 3 mps 711 mmHg 11%
    17:00 +42°C° 0 mm 3 mps 711 mmHg 11%
    18:00 +42°C° 0 mm 3 mps 711 mmHg 12%
    19:00 +40°C° 0 mm 3 mps 712 mmHg 13%
    20:00 +40°C° 0 mm 4 mps 713 mmHg 14%
    21:00 +39°C° 0 mm 5 mps 713 mmHg 14%
    22:00 +36°C° 0 mm 5 mps 713 mmHg 18%
    23:00 +35°C° 0 mm 6 mps 713 mmHg 21%

    Day after tomorrow, 24 March, Sunday

    Time Temperature Precipitation Wind Pressure Humidity
    00:00 +34°C° 0 mm 7 mps 713 mmHg 25%
    01:00 +33°C° 0 mm 7 mps 713 mmHg 28%
    02:00 +32°C° 0 mm 7 mps 713 mmHg 30%
    03:00 +29°C° 0 mm 8 mps 712 mmHg 33%
    04:00 +29°C° 0 mm 7 mps 712 mmHg 36%
    05:00 +28°C° 0 mm 6 mps 712 mmHg 38%
    06:00 +27°C° 0 mm 5 mps 713 mmHg 41%
    07:00 +29°C° 0 mm 6 mps 713 mmHg 38%
    08:00 +30°C° 0 mm 6 mps 714 mmHg 36%
    09:00 +33°C° 0 mm 6 mps 714 mmHg 34%
    10:00 +35°C° 0 mm 5 mps 714 mmHg 31%
    11:00 +36°C° 0 mm 4 mps 713 mmHg 29%
    12:00 +38°C° 0 mm 3 mps 713 mmHg 27%
    13:00 +39°C° 0 mm 3 mps 712 mmHg 25%
    14:00 +39°C° 0 mm 2 mps 711 mmHg 24%
    15:00 +40°C° 0 mm 2 mps 710 mmHg 22%
    16:00 +40°C° 0.1 mm 4 mps 711 mmHg 25%
    17:00 +38°C° 0.1 mm 6 mps 711 mmHg 27%
    18:00 +37°C° 0.1 mm 8 mps 711 mmHg 29%
    19:00 +35°C° 0.3 mm 8 mps 712 mmHg 32%
    20:00 +33°C° 0.3 mm 8 mps 713 mmHg 35%
    21:00 +32°C° 0.3 mm 8 mps 714 mmHg 39%
    22:00 +32°C° 0.2 mm 8 mps 714 mmHg 39%
    23:00 +31°C° 0.2 mm 8 mps 714 mmHg 40%

    25 March, Monday

    Time Temperature Precipitation Wind Pressure Humidity
    00:00 +31°C° 0.2 mm 8 mps 714 mmHg 41%
    01:00 +29°C° 0 mm 9 mps 714 mmHg 45%
    02:00 +28°C° 0 mm 10 mps 714 mmHg 48%
    03:00 +27°C° 0 mm 11 mps 713 mmHg 52%
    04:00 +26°C° 0.1 mm 11 mps 714 mmHg 56%
    05:00 +24°C° 0.1 mm 11 mps 714 mmHg 60%
    06:00 +23°C° 0.1 mm 11 mps 715 mmHg 64%
    07:00 +24°C° 0.1 mm 11 mps 715 mmHg 61%
    08:00 +24°C° 0.1 mm 11 mps 716 mmHg 59%
    09:00 +24°C° 0.1 mm 11 mps 717 mmHg 56%
    10:00 +27°C° 0 mm 10 mps 717 mmHg 50%
    11:00 +29°C° 0 mm 10 mps 717 mmHg 43%
    12:00 +32°C° 0 mm 9 mps 717 mmHg 37%
    13:00 +33°C° 0 mm 9 mps 716 mmHg 35%
    14:00 +34°C° 0 mm 9 mps 716 mmHg 32%
    15:00 +35°C° 0 mm 8 mps 715 mmHg 30%
    16:00 +33°C° 0 mm 9 mps 716 mmHg 31%
    17:00 +32°C° 0 mm 9 mps 716 mmHg 32%
    18:00 +31°C° 0 mm 9 mps 717 mmHg 33%
    19:00 +29°C° 0 mm 9 mps 718 mmHg 32%
    20:00 +28°C° 0 mm 9 mps 718 mmHg 30%
    21:00 +26°C° 0 mm 10 mps 719 mmHg 29%
    22:00 +24°C° 0 mm 9 mps 719 mmHg 30%
    23:00 +23°C° 0 mm 9 mps 719 mmHg 31%

    26 March, Tuesday

    Time Temperature Precipitation Wind Pressure Humidity
    00:00 +22°C° 0 mm 9 mps 719 mmHg 32%
    01:00 +21°C° 0 mm 9 mps 719 mmHg 36%
    02:00 +19°C° 0 mm 9 mps 719 mmHg 40%
    03:00 +18°C° 0 mm 9 mps 719 mmHg 43%
    04:00 +17°C° 0 mm 9 mps 719 mmHg 46%
    05:00 +17°C° 0 mm 9 mps 719 mmHg 48%
    06:00 +16°C° 0 mm 9 mps 720 mmHg 51%
    07:00 +17°C° 0 mm 9 mps 720 mmHg 49%
    08:00 +17°C° 0 mm 9 mps 721 mmHg 47%
    09:00 +18°C° 0 mm 8 mps 722 mmHg 45%
    10:00 +21°C° 0 mm 8 mps 721 mmHg 38%
    11:00 +23°C° 0 mm 8 mps 721 mmHg 31%
    12:00 +26°C° 0 mm 7 mps 721 mmHg 24%
    13:00 +27°C° 0 mm 7 mps 720 mmHg 22%
    14:00 +29°C° 0 mm 7 mps 719 mmHg 19%
    15:00 +30°C° 0 mm 6 mps 719 mmHg 17%
    16:00 +29°C° 0 mm 6 mps 719 mmHg 18%
    17:00 +28°C° 0 mm 6 mps 719 mmHg 18%
    18:00 +28°C° 0 mm 6 mps 720 mmHg 19%
    19:00 +26°C° 0 mm 6 mps 720 mmHg 20%
    20:00 +24°C° 0 mm 6 mps 721 mmHg 22%
    21:00 +22°C° 0 mm 6 mps 721 mmHg 24%
    22:00 +22°C° 0 mm 6 mps 721 mmHg 24%
    23:00 +21°C° 0 mm 6 mps 721 mmHg 25%

    27 March, Wednesday

    Time Temperature Precipitation Wind Pressure Humidity
    00:00 +20°C° 0 mm 6 mps 721 mmHg 26%
    01:00 +19°C° 0 mm 6 mps 720 mmHg 28%
    02:00 +17°C° 0 mm 5 mps 720 mmHg 30%
    03:00 +16°C° 0 mm 5 mps 720 mmHg 32%
    04:00 +16°C° 0 mm 5 mps 720 mmHg 33%
    05:00 +15°C° 0 mm 5 mps 720 mmHg 35%
    06:00 +15°C° 0 mm 5 mps 720 mmHg 36%
    07:00 +16°C° 0 mm 6 mps 721 mmHg 33%
    08:00 +19°C° 0 mm 6 mps 721 mmHg 31%
    09:00 +21°C° 0 mm 7 mps 721 mmHg 28%
    10:00 +23°C° 0 mm 6 mps 721 mmHg 25%
    11:00 +26°C° 0 mm 6 mps 720 mmHg 21%
    12:00 +28°C° 0 mm 5 mps 720 mmHg 18%
    13:00 +29°C° 0 mm 5 mps 719 mmHg 16%
    14:00 +30°C° 0 mm 5 mps 718 mmHg 14%
    15:00 +32°C° 0 mm 5 mps 718 mmHg 13%
    16:00 +32°C° 0 mm 4 mps 718 mmHg 13%
    17:00 +30°C° 0 mm 4 mps 718 mmHg 13%
    18:00 +29°C° 0 mm 4 mps 718 mmHg 14%
    19:00 +28°C° 0 mm 4 mps 718 mmHg 16%
    20:00 +26°C° 0 mm 4 mps 719 mmHg 18%
    21:00 +23°C° 0 mm 4 mps 719 mmHg 19%
    22:00 +22°C° 0 mm 4 mps 719 mmHg 22%
    23:00 +21°C° 0 mm 4 mps 719 mmHg 24%
    Show more